TimeEST,TemperatureF,Dew PointF,Humidity,Sea Level PressureIn,VisibilityMPH,Wind Direction,Wind SpeedMPH,Gust SpeedMPH,PrecipitationIn,Events,Conditions,WindDirDegrees,DateUTC
12:53 AM,43.0,39.9,89,30.21,10.0,Calm,Calm,-,N/A,,Mostly Cloudy,0,2012-11-20 05:53:00
1:53 AM,43.0,39.9,89,30.19,10.0,Calm,Calm,-,N/A,,Overcast,0,2012-11-20 06:53:00
2:53 AM,44.6,39.2,81,30.19,10.0,Calm,Calm,-,N/A,,Overcast,0,2012-11-20 07:53:00
3:53 AM,44.1,41.0,89,30.17,10.0,Calm,Calm,-,N/A,,Overcast,0,2012-11-20 08:53:00
4:53 AM,43.0,39.9,89,30.18,10.0,Calm,Calm,-,N/A,,Mostly Cloudy,0,2012-11-20 09:53:00
5:53 AM,41.0,39.9,96,30.18,10.0,Calm,Calm,-,N/A,,Mostly Cloudy,0,2012-11-20 10:53:00
6:53 AM,42.1,39.9,92,30.19,10.0,Calm,Calm,-,N/A,,Mostly Cloudy,0,2012-11-20 11:53:00
7:53 AM,41.0,39.0,93,30.20,10.0,Calm,Calm,-,N/A,,Scattered Clouds,0,2012-11-20 12:53:00
8:53 AM,44.1,41.0,89,30.21,10.0,Calm,Calm,-,N/A,,Scattered Clouds,0,2012-11-20 13:53:00
9:53 AM,51.1,42.1,71,30.21,10.0,Calm,Calm,-,N/A,,Partly Cloudy,0,2012-11-20 14:53:00
10:53 AM,57.9,43.0,58,30.20,10.0,Calm,Calm,-,N/A,,Scattered Clouds,0,2012-11-20 15:53:00
11:53 AM,64.0,42.1,45,30.17,10.0,Calm,Calm,-,N/A,,Scattered Clouds,0,2012-11-20 16:53:00
12:53 PM,66.0,43.0,43,30.13,10.0,Calm,Calm,-,N/A,,Scattered Clouds,0,2012-11-20 17:53:00
1:53 PM,68.0,43.0,40,30.10,10.0,Calm,Calm,-,N/A,,Scattered Clouds,0,2012-11-20 18:53:00
2:53 PM,68.0,43.0,40,30.08,10.0,SW,3.5,-,N/A,,Scattered Clouds,220,2012-11-20 19:53:00
3:53 PM,68.0,42.1,39,30.07,10.0,Calm,Calm,-,N/A,,Partly Cloudy,0,2012-11-20 20:53:00
4:53 PM,66.0,42.1,42,30.07,10.0,Calm,Calm,-,N/A,,Partly Cloudy,0,2012-11-20 21:53:00
5:53 PM,63.0,43.0,48,30.08,10.0,Calm,Calm,-,N/A,,Mostly Cloudy,0,2012-11-20 22:53:00
6:53 PM,57.0,44.1,62,30.08,10.0,Calm,Calm,-,N/A,,Scattered Clouds,0,2012-11-20 23:53:00
7:53 PM,53.1,44.1,71,30.10,10.0,Calm,Calm,-,N/A,,Partly Cloudy,0,2012-11-21 00:53:00
8:53 PM,52.0,44.1,74,30.12,10.0,Calm,Calm,-,N/A,,Scattered Clouds,0,2012-11-21 01:53:00
9:53 PM,51.1,45.0,80,30.12,10.0,Calm,Calm,-,N/A,,Mostly Cloudy,0,2012-11-21 02:53:00
10:53 PM,51.1,44.1,77,30.12,10.0,Calm,Calm,-,N/A,,Mostly Cloudy,0,2012-11-21 03:53:00
11:53 PM,50.0,44.1,80,30.11,10.0,Calm,Calm,-,N/A,,Mostly Cloudy,0,2012-11-21 04:53:00